User: anonymous
Location: Unspecified
(0.0000°N, 0.0000°E)
Time: 19:12:42
(UTC+02:00)
Language:

Helios 1A Rocket - Orbit

View from above orbital plane
View from above orbital plane
View from above satellite
View from above satellite

Ground track
Ground track

The orbit data is extracted from the following two-line orbital elements,

1 23608U 95033D   14206.47201671  .00000996  00000-0  10331-3 0  2651
2 23608 098.2925 069.9728 0019532 134.0569 226.2260 14.92351617 29735
Epoch (UTC): 25 July 2014 11:19:42
Eccentricity: 0.0019532
inclination: 98.2925°
perigee height: 577 km
apogee height: 604 km
right ascension of ascending node: 69.9728°
argument of perigee: 134.0569°
revolutions per day: 14.92351617
mean anomaly at epoch: 226.2260°
orbit number at epoch: 2973

The dashed part of the orbit path shows where the satellite is in the earth's shadow,  

DLR